x

Bodega Bay - 48nm Nnw Of San Francisco, Ca (46013) Wave Buoy

1:50pm - Sun 25th Jun 2017 All times are PDT. -7 hours from GMT.

  • Sig Wave height 3.3ft
  • Swell Direction
  • Peak Period 14s
  • Average Period 9s
  • Wind
    4mph, 7mph gusts
  • Sea Temp 54°f
  • Air Temp 56°f
  • Sea Pressure 1017.4mb
  • Bodega Bay - 48nm Nnw Of San Francisco, Ca
  • Bodega Bay - 48nm Nnw Of San Francisco, Ca

More Historic Weather Station data

Upgrade to MSW Pro to gain access to the past 30 days of data for over 8000 Wavebouys and Weather Stations around the globe.

Join Pro

Comparision Forecast

View Surf forecast
   
Sun 06/25 1:50pm 3.5ft 14s 9s 4 7 mph 1017.4mb 54f 56f
1:40pm  -   -   -  4 7 mph 1017.4mb 53f 56f
1:30pm  -   -   -  4 7 mph 1017.4mb 52f 56f
1:20pm  -   -   -  4 4 mph 1017.4mb 52f 56f
1:10pm  -   -   -  4 4 mph 1017.4mb 53f 56f
1:00pm  -   -   -  2 4 mph 1017.5mb 53f 55f
12:50pm 3.5ft 14s 9s 4 4 mph 1017.5mb 52f 56f
12:40pm  -   -   -  4 4 mph 1017.5mb 52f 55f
12:30pm  -   -   -  4 4 mph 1017.4mb 52f 55f
12:20pm  -   -   -  4 7 mph 1017.3mb 52f 55f
12:10pm  -   -   -  4 7 mph 1017.3mb 52f 55f
12:00pm  -   -   -  4 7 mph 1017.4mb 52f 55f
11:50am 3.5ft 15s 9s 4 7 mph 1017.4mb 52f 55f
11:40am 3.5ft  -  9s 7 7 mph 1017.3mb 52f 55f
11:30am  -   -   -  7 7 mph 1017.3mb 51f 55f
11:20am  -   -   -  4 7 mph 1017.3mb 51f 55f
11:10am  -   -   -  7 7 mph 1017.3mb 52f 55f
11:00am  -   -   -  7 7 mph 1017.1mb 51f 55f
10:50am 3ft 14s 8s 4 7 mph 1017.1mb 52f 54f
10:40am 3ft  -  8s 4 7 mph 1017mb 52f 54f
10:30am  -   -   -  4 7 mph 1017mb 53f 54f
10:20am  -   -   -  4 7 mph 1017mb 52f 54f
10:10am  -   -   -  7 7 mph 1017mb 52f 54f
10:00am  -   -   -  4 7 mph 1017mb 52f 54f
9:50am 3.5ft 14s 9s 7 7 mph 1017mb 52f 54f
9:40am 3.5ft  -  9s 7 7 mph 1017mb 52f 54f
9:30am  -   -   -  7 7 mph 1016.9mb 52f 54f
9:20am  -   -   -  7 7 mph 1016.9mb 52f 54f
9:10am  -   -   -  4 7 mph 1016.8mb 53f 54f
9:00am  -   -   -  4 4 mph 1016.9mb 53f 54f
8:50am 3ft 14s 8s 4 7 mph 1016.8mb 53f 54f
8:40am 3ft  -  8s 4 7 mph 1016.5mb 53f 54f
8:30am  -   -   -  4 4 mph 1016.5mb 53f 54f
8:20am  -   -   -  4 7 mph 1016.5mb 53f 54f
8:10am  -   -   -  4 7 mph 1016.4mb 53f 54f
8:00am  -   -   -  4 7 mph 1016.3mb 53f 54f
7:50am 3.5ft 14s 8s 4 7 mph 1016.1mb 53f 54f
7:40am 3.5ft  -  8s 7 9 mph 1016mb 53f 55f
7:30am  -   -   -  7 9 mph 1015.9mb 54f 55f
7:20am  -   -   -  7 7 mph 1015.9mb 54f 54f
7:10am  -   -   -  4 7 mph 1015.8mb 54f 54f
7:00am  -   -   -  4 7 mph 1015.6mb 54f 54f
6:50am 3.5ft 14s 8s 4 7 mph 1015.5mb 54f 55f
6:40am 3.5ft  -  8s 7 11 mph 1015.5mb 54f 55f
6:30am  -   -   -  7 9 mph 1015.5mb 54f 55f
6:20am  -   -   -  7 11 mph 1015.1mb 54f 55f
6:10am  -   -   -  7 11 mph 1015.1mb 54f 55f
6:00am  -   -   -  7 9 mph 1015.1mb 54f 55f
5:50am 3.5ft 15s 8s 9 11 mph 1015mb 53f 55f
5:40am  -   -   -  7 11 mph 1015mb 53f 54f
5:30am  -   -   -  7 9 mph 1015mb 53f 54f
5:20am  -   -   -  7 9 mph 1014.8mb 53f 54f
5:10am  -   -   -  7 9 mph 1014.6mb 53f 54f
5:00am  -   -   -  7 7 mph 1014.6mb 53f 54f
4:50am 3.5ft 15s 8s 7 9 mph 1014.5mb 53f 55f
4:40am  -   -   -  9 11 mph 1014.5mb 53f 54f
4:30am  -   -   -  7 7 mph 1014.5mb 53f 54f
4:20am  -   -   -  9 11 mph 1014.5mb 53f 55f
4:10am  -   -   -  7 9 mph 1014.4mb - 55f
4:00am  -   -   -  9 11 mph 1014.3mb 53f 54f
3:50am 3.5ft 15s 8s 7 9 mph 1014mb 53f 54f
3:40am  -   -   -  9 11 mph 1014mb 53f 54f
3:30am  -   -   -  9 11 mph 1014mb 53f 54f
3:20am  -   -   -  9 11 mph 1014mb 53f 54f
3:10am  -   -   -  9 9 mph 1014mb 53f 54f
3:00am  -   -   -  9 11 mph 1014.1mb 53f 54f
2:50am 3.5ft 15s 8s 9 11 mph 1014mb 53f 54f
2:40am 3.5ft  -  8s 9 9 mph 1014.1mb 53f 54f
2:30am  -   -   -  9 11 mph 1014.1mb 53f 54f
2:20am  -   -   -  9 9 mph 1014.3mb 53f 54f
2:10am  -   -   -  9 11 mph 1014.3mb 53f 54f
2:00am  -   -   -  9 11 mph 1014.4mb 53f 54f
1:50am 3.5ft 15s 8s 9 11 mph 1014.4mb 53f 54f
1:40am 3.5ft  -  8s 9 11 mph 1014.4mb 53f 54f
1:30am  -   -   -  9 11 mph 1014.4mb 53f 54f
1:20am  -   -   -  7 9 mph 1014.4mb 53f 54f
1:10am  -   -   -  7 9 mph 1014.5mb 53f 54f
1:00am  -   -   -  7 9 mph 1014.5mb 53f 54f
12:50am 3.5ft 15s 8s 7 9 mph 1014.5mb 53f 54f
12:40am 3.5ft  -  8s 7 9 mph 1014.5mb 53f 54f
12:30am  -   -   -  7 9 mph 1014.5mb 53f 54f
12:20am  -   -   -  7 9 mph 1014.5mb 53f 54f
12:10am  -   -   -  7 7 mph 1014.5mb 53f 54f
12:00am  -   -   -  7 9 mph 1014.5mb 53f 54f
Sat 06/24 11:50pm 3.5ft 15s 8s 7 7 mph 1014.8mb 53f 54f
11:40pm 3.5ft  -  8s 7 9 mph 1014.9mb 53f 55f
11:30pm  -   -   -  7 9 mph 1014.6mb 53f 54f
11:20pm  -   -   -  9 9 mph 1014.6mb 53f 55f
11:10pm  -   -   -  9 11 mph 1014.8mb 53f 55f
11:00pm  -   -   -  9 11 mph 1014.8mb 53f 55f
10:50pm 3.5ft 15s 8s 9 11 mph 1014.8mb 53f 55f
10:40pm  -   -   -  9 9 mph 1014.8mb 53f 54f
10:30pm  -   -   -  7 9 mph 1014.9mb 53f 55f
10:20pm  -   -   -  9 11 mph 1014.9mb 53f 55f
10:10pm  -   -   -  7 9 mph 1014.9mb 53f 55f
10:00pm  -   -   -  7 7 mph 1015mb 53f 55f
9:50pm 3.5ft 15s 8s 7 9 mph 1014.9mb 53f 55f
9:40pm 3.5ft  -  8s 7 9 mph 1014.9mb 53f 55f
9:30pm  -   -   -  7 9 mph 1014.8mb 53f 55f
9:20pm  -   -   -  4 7 mph 1014.9mb 53f 55f
9:10pm  -   -   -  7 9 mph 1015mb 53f 55f
9:00pm  -   -   -  4 9 mph 1014.9mb 53f 55f
8:50pm 3.5ft 15s 7s 7 9 mph 1014.6mb 53f 55f
8:40pm 3.5ft  -  7s 7 11 mph 1014.6mb 53f 55f
8:30pm  -   -   -  9 11 mph 1014.5mb 53f 55f
8:20pm  -   -   -  9 11 mph 1014.4mb 53f 55f
8:10pm  -   -   -  9 11 mph 1014.1mb 53f 55f
8:00pm  -   -   -  9 11 mph 1014.3mb 53f 55f
7:50pm 3.5ft 15s 7s 9 11 mph 1014.4mb 53f 55f
7:40pm 3.5ft  -  7s 9 9 mph 1014.5mb 53f 55f
7:30pm  -   -   -  9 11 mph 1014.6mb 53f 55f
7:20pm  -   -   -  9 13 mph 1014.4mb 53f 55f
7:10pm  -   -   -  9 13 mph 1014.5mb 53f 55f
7:00pm  -   -   -  9 11 mph 1014.4mb 53f 55f
6:50pm 3.5ft 15s 7s 9 11 mph 1014.5mb 53f 55f
6:40pm 3.5ft  -  7s 9 11 mph 1014.3mb 53f 55f
6:30pm  -   -   -  7 9 mph 1014.5mb 53f 55f
6:20pm  -   -   -  4 9 mph 1014.5mb 53f 55f
6:10pm  -   -   -  7 9 mph 1014mb 53f 55f
6:00pm  -   -   -  11 18 mph 1014mb 53f 55f
5:50pm 3.5ft 15s 8s 13 16 mph 1013.3mb 53f 55f
5:40pm  -   -   -  13 18 mph 1013.5mb 53f 55f
5:30pm  -   -   -  11 13 mph 1013.6mb 53f 55f
5:20pm  -   -   -  9 9 mph 1014.3mb 54f 55f
5:10pm  -   -   -  9 11 mph 1014.3mb 54f 55f
5:00pm  -   -   -  9 11 mph 1014.1mb 55f 55f
4:50pm 3.5ft 15s 8s 11 13 mph 1014.4mb 55f 55f
4:40pm 3.5ft  -  8s 11 11 mph 1014.8mb 55f 55f
4:30pm  -   -   -  11 13 mph 1015mb 55f 55f
4:20pm  -   -   -  11 13 mph 1015.1mb 55f 55f
4:10pm  -   -   -  9 11 mph 1015mb 55f 55f
4:00pm  -   -   -  9 9 mph 1015.1mb 55f 55f
3:50pm 3.5ft 14s 8s 9 11 mph 1015.1mb 55f 55f
3:40pm  -   -   -  9 13 mph 1015.4mb 55f 55f
3:30pm  -   -   -  11 13 mph 1015.3mb 55f 55f
3:20pm  -   -   -  9 13 mph 1015.1mb 55f 55f
3:10pm  -   -   -  9 11 mph 1015.1mb 53f 55f
3:00pm  -   -   -  9 11 mph 1015.3mb 53f 55f
2:50pm 4ft 15s 8s 9 11 mph 1015.5mb 54f 55f
2:40pm  -   -   -  9 11 mph 1015.5mb 54f 55f
2:30pm  -   -   -  9 13 mph 1015.5mb 54f 55f
2:20pm  -   -   -  9 11 mph 1015.5mb 52f 55f
2:10pm  -   -   -  7 9 mph 1015.6mb 52f 55f
2:00pm  -   -   -  7 9 mph 1015.6mb 52f 54f
1:50pm 4.5ft 15s 8s 7 9 mph 1015.6mb 52f 54f
1:40pm 4.5ft  -  8s 7 9 mph 1015.5mb 52f 54f
1:30pm  -   -   -  7 9 mph 1015.4mb 53f 54f
1:20pm  -   -   -  7 9 mph 1015.5mb 52f 54f
1:10pm  -   -   -  9 9 mph 1015.5mb 52f 54f
1:00pm  -   -   -  7 9 mph 1015.4mb 52f 54f
12:50pm 4.5ft 16s 8s 7 9 mph 1015.5mb 52f 54f
12:40pm  -   -   -  7 7 mph 1015.5mb 52f 54f
12:30pm  -   -   -  4 7 mph 1015.5mb 53f 54f
12:20pm  -   -   -  4 7 mph 1015.6mb 53f 54f
12:10pm  -   -   -  4 7 mph 1015.9mb 53f 53f
12:00pm  -   -   -  4 4 mph 1015.9mb 52f 53f
11:50am 4ft 13s 8s 4 4 mph 1015.9mb 52f 53f
11:40am 4ft  -  8s 2 4 mph 1015.8mb 53f 53f
11:30am  -   -   -  2 4 mph 1015.8mb 52f 53f
11:20am  -   -   -  2 4 mph 1015.9mb 52f 53f
11:10am  -   -   -  4 4 mph 1015.8mb 52f 53f
11:00am  -   -   -  2 4 mph 1015.8mb 52f 53f
10:50am 4ft 15s 8s 2 4 mph 1015.9mb 52f 53f
10:40am 4ft  -  8s 2 4 mph 1015.9mb 52f 53f
10:30am  -   -   -  2 4 mph 1015.8mb 51f 53f
10:20am  -   -   -  2 2 mph 1015.8mb 51f 54f
10:10am  -   -   -   -  2 mph 1015.8mb 51f 54f
10:00am  -   -   -   -  2 mph 1015.9mb 51f 54f
9:50am 4ft 16s 8s 2 4 mph 1015.9mb 51f 53f
9:40am 4ft  -  8s 2 4 mph 1015.9mb 52f 53f
9:30am  -   -   -  4 4 mph 1015.9mb 52f 53f
9:20am  -   -   -  4 7 mph 1015.9mb 52f 53f
9:10am  -   -   -  4 4 mph 1015.9mb 52f 53f
9:00am  -   -   -  2 7 mph 1015.8mb 52f 53f
8:50am 3.5ft 15s 8s 2 4 mph 1016mb 52f 53f
8:40am 3.5ft  -  8s 2 4 mph 1016mb 52f 53f
8:30am  -   -   -  4 4 mph 1016mb 52f 53f
8:20am  -   -   -  4 4 mph 1016mb 52f 53f
8:10am  -   -   -  4 4 mph 1016mb 52f 53f
8:00am  -   -   -  4 4 mph 1016mb 52f 53f
7:50am 3.5ft 15s 8s 4 4 mph 1015.8mb 52f 53f
7:40am 3.5ft  -  8s 2 4 mph 1015.6mb 51f 53f
7:30am  -   -   -  2 4 mph 1015.6mb 52f 53f
7:20am  -   -   -  4 4 mph 1015.5mb 52f 53f
7:10am  -   -   -  2 4 mph 1015.5mb 53f 53f
7:00am  -   -   -  2 4 mph 1015.5mb 53f 53f
6:50am 4.5ft 15s 8s 2 4 mph 1015.4mb 53f 53f
6:40am 4.5ft  -  8s 2 4 mph 1015.3mb 52f 53f
6:30am  -   -   -  4 4 mph 1015.1mb 52f 53f
6:20am  -   -   -  2 4 mph 1015mb - 53f
6:10am  -   -   -  2 4 mph 1014.9mb 52f 53f
6:00am  -   -   -  2 2 mph 1014.6mb 52f 53f
5:50am  -   -   -  2 2 mph 1014.5mb 52f 54f
5:40am  -   -   -  2 2 mph 1014.5mb 52f 53f
5:30am  -   -   -   -  mph 1014.5mb 52f -
5:20am  -   -   -  2 4 mph 1014.3mb 52f 54f
5:10am  -   -   -  4 4 mph 1014.3mb 52f 54f
5:00am  -   -   -  4 7 mph 1014.1mb 52f 54f
4:50am 4ft 15s 8s 4 7 mph 1014mb 53f 54f
4:40am  -   -   -  2 4 mph 1014mb 53f 54f
4:30am  -   -   -  2 4 mph 1014mb 53f 54f
4:20am  -   -   -  4 7 mph 1014mb 53f 54f
4:10am  -   -   -  4 4 mph 1014mb 53f 54f
4:00am  -   -   -  4 4 mph 1014.3mb 53f 54f
3:50am 3.5ft 16s 8s 4 7 mph 1014.3mb 53f 54f
3:40am 3.5ft  -  8s 4 7 mph 1014.3mb 53f 54f
3:30am  -   -   -  4 7 mph 1014.3mb 53f 54f
3:20am  -   -   -  4 7 mph 1014.3mb 53f 54f
3:10am  -   -   -  4 7 mph 1014.4mb 53f 54f
3:00am  -   -   -  4 7 mph 1014.4mb 53f 54f
2:50am 4.5ft 15s 8s 2 4 mph 1014.5mb 53f 54f
2:40am 4.5ft  -  8s 2 4 mph 1014.5mb 53f 54f
2:30am  -   -   -  2 4 mph 1014.5mb 53f 54f
2:20am  -   -   -   -  2 mph 1014.6mb 53f 54f
2:10am  -   -   -  2 2 mph 1014.8mb 53f 54f
2:00am  -   -   -   -  2 mph 1014.8mb 53f 54f
1:50am 4.5ft 16s 8s  -  2 mph 1014.9mb 53f 54f
1:40am 4.5ft  -  8s  -  2 mph 1014.9mb 53f 54f
1:30am  -   -   -   -  2 mph 1014.9mb 53f 54f
1:20am  -   -   -   -  2 mph 1014.9mb 53f 54f
1:10am  -   -   -   -  0 mph 1014.8mb 53f 55f
1:00am  -   -   -   -  2 mph 1014.8mb 53f 54f
12:50am 4ft 16s 8s 2 2 mph 1014.9mb 53f 54f
12:40am 4ft  -  8s 2 2 mph 1015mb 53f 54f
12:30am  -   -   -   -  2 mph 1014.9mb 53f 54f
12:20am  -   -   -   -  2 mph 1014.9mb 53f 55f
12:10am  -   -   -   -  2 mph 1014.9mb 53f 55f
12:00am  -   -   -  2 4 mph 1014.9mb 53f 55f
Fri 06/23 11:50pm 3.5ft 16s 7s 2 4 mph 1014.8mb 52f 55f
11:40pm 3.5ft  -  7s  -  2 mph 1014.8mb 53f 55f
11:30pm  -   -   -   -  2 mph 1014.6mb 53f 55f
11:20pm  -   -   -   -  2 mph 1014.8mb 53f 55f
11:10pm  -   -   -   -  2 mph 1014.8mb 53f 55f
11:00pm  -   -   -  2 2 mph 1014.8mb 53f 55f
10:50pm 4ft 16s 8s 2 2 mph 1014.6mb 53f 55f
10:40pm  -   -   -  2 2 mph 1014.8mb 53f 55f
10:30pm  -   -   -  2 2 mph 1014.6mb 53f 55f
10:20pm  -   -   -  2 4 mph 1014.6mb 53f 55f
10:10pm  -   -   -  2 4 mph 1014.6mb 53f 55f
10:00pm  -   -   -  4 4 mph 1014.6mb 53f 55f
9:50pm 4ft 16s 7s 4 4 mph 1014.5mb 53f 55f
9:40pm 4ft  -  7s 2 4 mph 1014.4mb 53f 55f
9:30pm  -   -   -  2 4 mph 1014.4mb 53f 55f
9:20pm  -   -   -  2 4 mph 1014.4mb 53f 55f
9:10pm  -   -   -  4 4 mph 1014.3mb 53f 55f
9:00pm  -   -   -  4 7 mph 1014.1mb 53f 55f
8:50pm 4ft 16s 8s 4 7 mph 1014mb 52f 56f
8:40pm 4ft  -  8s 2 4 mph 1014mb 53f 56f
8:30pm  -   -   -  2 4 mph 1014mb 53f 55f
8:20pm  -   -   -  4 7 mph 1013.9mb 53f 56f
8:10pm  -   -   -  4 7 mph 1013.9mb 53f 56f
8:00pm  -   -   -  2 4 mph 1013.9mb 53f 55f
7:50pm 4ft 16s 7s 2 4 mph 1013.9mb 53f 55f
7:40pm 4ft  -  7s 2 4 mph 1013.9mb 53f 56f
7:30pm  -   -   -  2 2 mph 1013.9mb 53f 56f
7:20pm  -   -   -  2 2 mph 1013.9mb 53f 56f
7:10pm  -   -   -  2 2 mph 1013.9mb 53f 56f
7:00pm  -   -   -  2 2 mph 1013.8mb 53f 56f
6:50pm 3.5ft 15s 7s 2 2 mph 1013.8mb 53f 56f
6:40pm 3.5ft  -  7s 2 2 mph 1013.8mb 52f 56f
6:30pm  -   -   -  2 4 mph 1013.9mb 52f 56f
6:20pm  -   -   -  2 4 mph 1013.9mb 53f 56f
6:10pm  -   -   -  2 4 mph 1013.8mb 53f 56f
6:00pm  -   -   -  2 2 mph 1013.8mb 53f 56f
5:50pm 3.5ft 15s 7s 2 4 mph 1013.8mb 53f 56f
5:40pm  -   -   -  2 4 mph 1013.8mb 54f 56f
5:30pm  -   -   -  2 4 mph 1013.8mb 53f 56f
5:20pm  -   -   -  2 4 mph 1013.9mb 53f 56f
5:10pm  -   -   -  4 7 mph 1013.9mb 52f 56f
5:00pm  -   -   -  2 4 mph 1014mb 52f 56f
4:50pm 4ft 16s 7s 2 4 mph 1014mb 52f 56f
4:40pm  -   -   -  2 4 mph 1014mb 52f 56f
4:30pm  -   -   -  2 4 mph 1014mb 52f 56f
4:20pm  -   -   -  2 4 mph 1014mb 52f 56f
4:10pm  -   -   -  4 4 mph 1014mb 52f 56f
4:00pm  -   -   -  4 7 mph 1014.1mb 53f 56f
3:50pm 4.5ft 14s 7s 4 7 mph 1014.1mb 52f 56f
3:40pm 4.5ft  -  7s 4 4 mph 1014.1mb 52f 56f
3:30pm  -   -   -  4 4 mph 1014.3mb 52f 56f
3:20pm  -   -   -  4 7 mph 1014.3mb 52f 56f
3:10pm  -   -   -  4 4 mph 1014.3mb 52f 56f
3:00pm  -   -   -  4 4 mph 1014.3mb 52f 56f
2:50pm 4.5ft 15s 7s 2 4 mph 1014.3mb 52f 56f
2:40pm  -   -   -  2 4 mph 1014.3mb 52f 55f
2:30pm  -   -   -  2 4 mph 1014.4mb 52f 55f
2:20pm  -   -   -  2 4 mph 1014.4mb 52f 55f
2:10pm  -   -   -  2 4 mph 1014.5mb 52f 55f
2:00pm  -   -   -  2 4 mph 1014.5mb 52f 55f
1:50pm 4.5ft 16s 7s 4 7 mph 1014.4mb 52f 55f
1:40pm  -   -   -  4 7 mph 1014.4mb 52f 55f
1:30pm  -   -   -  4 7 mph 1014.4mb 52f 54f
1:20pm  -   -   -  7 7 mph 1014.4mb 52f 54f
1:10pm  -   -   -  4 7 mph 1014.4mb 52f 54f
1:00pm  -   -   -  4 7 mph 1014.4mb 52f 54f
12:50pm 4.5ft 16s 7s 7 9 mph 1014.4mb 52f 54f
12:40pm 4.5ft  -  7s 7 9 mph 1014.3mb 52f 54f
12:30pm  -   -   -  7 9 mph 1014.4mb 52f 54f
12:20pm  -   -   -  7 9 mph 1014.1mb 51f 54f
12:10pm  -   -   -  7 9 mph 1014mb 51f 54f
12:00pm  -   -   -  7 9 mph 1014mb 51f 54f
11:50am 4.5ft 15s 6s 7 9 mph 1014mb 51f 54f
11:40am  -   -   -  7 9 mph 1014mb 51f 54f
11:30am  -   -   -  7 9 mph 1014mb 51f 54f
11:20am  -   -   -  7 9 mph 1014mb 51f 54f
11:10am  -   -   -  7 9 mph 1014mb 51f 54f
11:00am  -   -   -  7 9 mph 1013.9mb 51f 54f
10:50am 5ft 17s 7s 7 9 mph 1013.9mb 51f 53f
10:40am 5ft  -  7s 7 9 mph 1013.8mb 51f 53f
10:30am  -   -   -  7 9 mph 1013.6mb 51f 53f
10:20am  -   -   -  7 9 mph 1013.6mb 51f 53f
10:10am  -   -   -  7 9 mph 1013.5mb 51f 53f
10:00am  -   -   -  7 9 mph 1013.6mb 51f 53f
9:50am 4.5ft 9s 6s 7 9 mph 1013.5mb 51f 53f
9:40am 4.5ft  -  6s 7 11 mph 1013.5mb 51f 53f
9:30am  -   -   -  7 9 mph 1013.5mb 51f 53f
9:20am  -   -   -  7 9 mph 1013.5mb 51f 53f
9:10am  -   -   -  9 11 mph 1013.5mb 51f 53f
9:00am  -   -   -  7 9 mph 1013.5mb 51f 53f
8:50am 4.5ft 15s 7s 9 11 mph 1013.5mb 51f 53f
8:40am  -   -   -  9 11 mph 1013.4mb 51f 53f
8:30am  -   -   -  9 11 mph 1013.3mb 51f 53f
8:20am  -   -   -  9 11 mph 1013.3mb 51f 53f
8:10am  -   -   -  11 13 mph 1013.3mb 51f 53f
8:00am  -   -   -  11 13 mph 1013.1mb 51f 53f
7:50am 4.5ft 14s 7s 11 13 mph 1013mb 51f 53f
7:40am 4.5ft  -  7s 9 13 mph 1013mb 51f 53f
7:30am  -   -   -  11 13 mph 1013mb 51f 54f
7:20am  -   -   -  11 13 mph 1012.9mb 51f 53f
7:10am  -   -   -  11 13 mph 1012.6mb 51f 53f
7:00am  -   -   -  11 13 mph 1012.5mb 51f 53f
6:50am 4.5ft 10s 7s 11 13 mph 1012.5mb 51f 53f
6:40am 4.5ft  -  7s 11 13 mph 1012.4mb 51f 53f
6:30am  -   -   -  11 13 mph 1012.3mb 51f 54f
6:20am  -   -   -  11 13 mph 1012.1mb 51f 54f
6:10am  -   -   -  11 13 mph 1012.1mb 51f 54f
6:00am  -   -   -  11 13 mph 1012mb 51f 54f
5:50am 4.5ft 10s 7s 11 13 mph 1012mb 51f 54f
5:40am 4.5ft  -  7s 11 13 mph 1011.9mb 51f 54f
5:30am  -   -   -  11 13 mph 1011.6mb 51f 54f
5:20am  -   -   -  9 13 mph 1011.6mb 51f 54f
5:10am  -   -   -  9 13 mph 1011.5mb - 54f
5:00am  -   -   -  11 13 mph 1011.4mb 51f 54f
4:50am 4.5ft 15s 7s 11 13 mph 1011.3mb 51f 54f
4:40am 4.5ft  -  7s 11 13 mph 1011.1mb 52f 54f
4:30am  -   -   -  11 13 mph 1011mb 52f 54f
4:20am  -   -   -  11 16 mph 1010.9mb 52f 54f
4:10am  -   -   -  11 13 mph 1010.9mb 52f 54f
4:00am  -   -   -  11 13 mph 1011mb 52f 54f
3:50am 5ft 15s 7s 9 13 mph 1011mb 52f 54f
3:40am  -   -   -  9 11 mph 1010.8mb 52f 54f
3:30am  -   -   -  11 13 mph 1010.9mb 52f 54f
3:20am  -   -   -  9 11 mph 1010.9mb 52f 54f
3:10am  -   -   -  9 11 mph 1010.9mb 52f 54f
3:00am  -   -   -  9 11 mph 1010.8mb 52f 54f
2:50am 5ft 10s 7s 9 11 mph 1010.9mb 52f 54f
2:40am  -   -   -  9 11 mph 1010.8mb 52f 54f
2:30am  -   -   -  9 11 mph 1010.8mb 52f 54f
2:20am  -   -   -  9 13 mph 1010.8mb 52f 54f
2:10am  -   -   -  9 13 mph 1010.8mb 52f 54f
2:00am  -   -   -  11 13 mph 1010.8mb 52f 54f
1:50am 5ft 15s 7s 11 13 mph 1010.8mb 52f 54f
1:40am  -   -   -  9 13 mph 1010.6mb 52f 53f
1:30am  -   -   -  9 13 mph 1010.6mb 52f 53f
1:20am  -   -   -  11 13 mph 1010.6mb 52f 53f
1:10am  -   -   -  11 13 mph 1010.6mb 52f 53f
1:00am  -   -   -  11 16 mph 1010.6mb 52f 54f
12:50am 4.5ft 14s 6s 11 13 mph 1010.5mb 52f 53f
12:40am 4.5ft  -  6s 11 13 mph 1010.5mb 52f 53f
12:30am  -   -   -  9 11 mph 1010.5mb 52f 53f
12:20am  -   -   -  9 11 mph 1010.4mb 52f 53f
12:10am  -   -   -  9 11 mph 1010.4mb 52f 53f
12:00am  -   -   -  9 11 mph 1010.3mb 52f 53f
Thu 06/22 11:50pm 5ft 11s 6s 11 13 mph 1010.3mb 52f 53f
11:40pm 5ft  -  6s 11 16 mph 1010.1mb 52f 54f
11:30pm  -   -   -  11 16 mph 1010.1mb 52f 54f
11:20pm  -   -   -  13 16 mph 1010.1mb 52f 54f
11:10pm  -   -   -  11 16 mph 1010.3mb 52f 54f
11:00pm  -   -   -  11 16 mph 1010.1mb 52f 54f
10:50pm 4.5ft 11s 6s 11 16 mph 1010mb 52f 54f
10:40pm 4.5ft  -  6s 13 16 mph 1010mb 52f 54f
10:30pm  -   -   -  13 18 mph 1010mb 52f 54f
10:20pm  -   -   -  13 16 mph 1009.9mb 52f 54f
10:10pm  -   -   -  13 18 mph 1009.9mb 52f 54f
10:00pm  -   -   -  13 18 mph 1009.8mb 52f 54f
9:50pm 5ft 10s 7s 11 16 mph 1009.6mb 52f 54f
9:40pm  -   -   -  13 18 mph 1009.5mb 52f 54f
9:30pm  -   -   -  11 16 mph 1009.5mb 52f 54f
9:20pm  -   -   -  11 16 mph 1009.4mb 52f 54f
9:10pm  -   -   -  13 16 mph 1009.3mb 53f 54f
9:00pm  -   -   -  13 16 mph 1009.3mb 53f 54f
8:50pm 5ft 11s 7s 11 16 mph 1009.1mb 53f 54f
8:40pm  -   -   -  13 18 mph 1009.1mb 53f 54f
8:30pm  -   -   -  13 16 mph 1009mb 53f 54f
8:20pm  -   -   -  13 16 mph 1009mb 53f 54f
8:10pm  -   -   -  11 16 mph 1009.1mb 53f 54f
8:00pm  -   -   -  11 16 mph 1009.1mb 53f 54f
7:50pm 4.5ft 11s 7s 11 18 mph 1009.1mb 53f 54f
7:40pm 4.5ft  -  7s 11 16 mph 1009.1mb 53f 54f
7:30pm  -   -   -  11 16 mph 1009mb 54f 54f
7:20pm  -   -   -  11 16 mph 1009mb 53f 54f
7:10pm  -   -   -  13 16 mph 1008.9mb 54f 54f
7:00pm  -   -   -  11 16 mph 1008.9mb 53f 54f
6:50pm 5ft 11s 7s 11 16 mph 1008.9mb 53f 54f
6:40pm  -   -   -  11 13 mph 1008.8mb 53f 55f
6:30pm  -   -   -  11 13 mph 1008.6mb 53f 55f
6:20pm  -   -   -  11 13 mph 1008.5mb 53f 55f
6:10pm  -   -   -  9 13 mph 1008.6mb 54f 56f
6:00pm  -   -   -  7 9 mph 1008.8mb 54f -
5:50pm 4.5ft 15s  -  7 11 mph 1008.6mb 55f 56f
5:40pm  -   -   -  9 11 mph 1008.6mb 55f 56f
5:30pm  -   -   -  9 11 mph 1008.6mb 54f 56f
5:20pm  -   -   -  9 11 mph 1008.6mb 54f 56f
5:10pm  -   -   -  7 11 mph 1008.6mb 53f 56f
5:00pm  -   -   -  9 9 mph 1008.8mb 54f 56f
4:50pm 5ft 11s 7s 7 11 mph 1008.9mb 54f 56f
4:40pm 5ft  -  7s 7 9 mph 1008.9mb 53f 56f
4:30pm  -   -   -  7 9 mph 1008.9mb 52f 56f
4:20pm  -   -   -  7 9 mph 1008.9mb 51f 56f
4:10pm  -   -   -  7 9 mph 1008.9mb 51f 56f
4:00pm  -   -   -  7 9 mph 1008.9mb 53f 56f
3:50pm 5.5ft 11s 7s 7 9 mph 1008.9mb 52f 56f
3:40pm  -   -   -  7 9 mph 1008.9mb 52f 56f
3:30pm  -   -   -  7 9 mph 1008.9mb 52f 56f
3:20pm  -   -   -  7 9 mph 1008.8mb 52f 56f
3:10pm  -   -   -  7 9 mph 1008.8mb 53f 56f
3:00pm  -   -   -  4 7 mph 1008.9mb 52f 56f
2:50pm 6ft 11s 7s 4 7 mph 1008.8mb 52f 56f
2:40pm  -   -   -  2 4 mph 1008.9mb 52f 56f
2:30pm  -   -   -  2 4 mph 1008.8mb 52f 56f
2:20pm  -   -   -  4 7 mph 1008.6mb 53f 55f
2:10pm  -   -   -  2 7 mph 1008.6mb 52f 55f
2:00pm  -   -   -  2 7 mph 1008.8mb 52f 55f
1:50pm 6ft 11s 7s 2 4 mph 1008.8mb 53f 55f
1:40pm  -   -   -  2 7 mph 1008.8mb 52f 55f
1:30pm  -   -   -  2 7 mph 1008.8mb 52f 55f
1:20pm  -   -   -  4 7 mph 1008.8mb 51f 55f
1:10pm  -   -   -  4 9 mph 1008.6mb 52f 55f
1:00pm  -   -   -  4 9 mph 1008.5mb 53f 55f
12:50pm 5.5ft 10s 7s 4 7 mph 1008.5mb 51f 55f
12:40pm  -   -   -  4 9 mph 1008.5mb 52f 55f
12:30pm  -   -   -  4 9 mph 1008.6mb 51f 55f
12:20pm  -   -   -  4 7 mph 1008.5mb 51f 55f
12:10pm  -   -   -  4 7 mph 1008.4mb 51f 55f
12:00pm  -   -   -  4 9 mph 1008.5mb - 55f
11:50am 5.5ft 10s 7s 4 7 mph 1008.4mb 51f 55f
11:40am 5.5ft  -  7s 4 7 mph 1008.5mb 51f 55f
11:30am  -   -   -  4 7 mph 1008.5mb 51f 55f
11:20am  -   -   -  7 9 mph 1008.1mb 51f 55f
11:10am  -   -   -  7 9 mph 1008mb 51f 55f
11:00am  -   -   -  4 9 mph 1008mb 51f 55f
10:50am 5ft 10s 7s 7 9 mph 1008mb 51f 55f
10:40am 5ft  -  7s 7 11 mph 1008mb 51f 55f
10:30am  -   -   -  9 11 mph 1007.9mb 50f 55f
10:20am  -   -   -  9 11 mph 1007.8mb 50f 55f
10:10am  -   -   -  4 9 mph 1007.8mb 51f 55f
10:00am  -   -   -  2 4 mph 1008mb 50f 55f
9:50am 5ft 10s 7s 2 4 mph 1007.9mb 50f 55f
9:40am  -   -   -  2 7 mph 1007.8mb 50f 55f
9:30am  -   -   -  4 9 mph 1007.8mb 50f 55f
9:20am  -   -   -  4 9 mph 1007.5mb 50f 55f
9:10am  -   -   -  4 7 mph 1007.6mb 50f 55f
9:00am  -   -   -  4 7 mph 1007.5mb 50f 55f
8:50am 5ft 8s 7s 2 7 mph 1007.5mb 50f 55f
8:40am 5ft  -  7s 4 7 mph 1007.3mb 50f 54f
8:30am  -   -   -  2 7 mph 1007.1mb 50f 54f
8:20am  -   -   -  4 7 mph 1007.1mb 50f 54f
8:10am  -   -   -  4 7 mph 1007mb 50f 53f
8:00am  -   -   -  4 7 mph 1007mb 50f 53f
7:50am 5.5ft 11s 7s 4 7 mph 1006.9mb 50f 53f
7:40am  -   -   -  2 4 mph 1007mb 50f 53f
7:30am  -   -   -  4 4 mph 1006.9mb 50f 53f
7:20am  -   -   -  4 7 mph 1006.8mb 50f 53f
7:10am  -   -   -  4 7 mph 1006.8mb 50f 52f
7:00am  -   -   -  4 7 mph 1006.6mb 50f 52f
6:50am 5ft 11s 7s 2 4 mph 1006.5mb 50f 52f
6:40am  -   -   -  4 4 mph 1006.5mb 50f 52f
6:30am  -   -   -  2 4 mph 1006.4mb 50f 51f
6:20am  -   -   -  4 4 mph 1006.1mb 50f 51f
6:10am  -   -   -  2 4 mph 1006.1mb 50f 51f
6:00am  -   -   -  4 4 mph 1006.1mb 50f 51f
5:50am 5ft 11s 7s 2 4 mph 1006mb 50f 51f
5:40am 5ft  -  7s 4 7 mph 1006mb 50f 51f
5:30am  -   -   -  4 7 mph 1006mb 50f 51f
5:20am  -   -   -  4 4 mph 1005.9mb 50f 51f
5:10am  -   -   -  2 4 mph 1005.9mb 50f 51f
5:00am  -   -   -  2 4 mph 1005.6mb 50f 51f
4:50am 6ft 9s 7s 2 4 mph 1005.5mb 50f 51f
4:40am 6ft  -  7s 4 7 mph 1005.8mb 50f 51f
4:30am  -   -   -  4 7 mph 1005.6mb 50f 51f
4:20am  -   -   -  4 7 mph 1005.6mb 50f 51f
4:10am  -   -   -  4 7 mph 1005.9mb - 51f
4:00am  -   -   -  4 7 mph 1005.6mb 50f 51f
3:50am 6ft 11s 7s 4 7 mph 1005.5mb 50f 51f
3:40am 6ft  -  7s 4 7 mph 1005.5mb 50f 51f
3:30am  -   -   -  2 4 mph 1005.5mb 50f 51f
3:20am  -   -   -  2 4 mph 1005.5mb 50f 51f
3:10am  -   -   -  2 4 mph 1005.6mb 50f 51f
3:00am  -   -   -  2 4 mph 1005.6mb 50f 51f
2:50am 6.5ft 11s 7s 4 7 mph 1005.5mb 50f 51f
2:40am 6.5ft  -  7s 4 7 mph 1005.5mb 50f 51f
2:30am  -   -   -  4 9 mph 1005.5mb 50f 51f
2:20am  -   -   -  4 7 mph 1005.5mb 50f 51f
2:10am  -   -   -  2 4 mph 1005.5mb 50f 51f
2:00am  -   -   -  4 7 mph 1005.5mb 50f 51f
1:50am 6.5ft 9s 7s 4 4 mph 1005.6mb 50f 51f
1:40am 6.5ft  -  7s 4 7 mph 1005.5mb 50f 51f
1:30am  -   -   -  4 4 mph 1005.5mb 50f 51f
1:20am  -   -   -  4 7 mph 1005.5mb 50f 51f
1:10am  -   -   -  4 7 mph 1005.5mb 50f 51f
1:00am  -   -   -  4 7 mph 1005.5mb 50f 51f
12:50am 6ft 12s 7s 7 9 mph 1005.6mb 50f 51f
12:40am  -   -   -  4 7 mph 1005.5mb 49f 51f
12:30am  -   -   -  4 7 mph 1005.5mb 49f 51f
12:20am  -   -   -  4 7 mph 1005.5mb 49f 51f
12:10am  -   -   -  4 9 mph 1005.5mb 49f 51f
12:00am  -   -   -  7 9 mph 1005.4mb 49f 51f
Wed 06/21 11:50pm 7ft 11s 7s 7 9 mph 1005.5mb 50f 51f
11:40pm  -   -   -  9 11 mph 1005.5mb 49f 51f
11:30pm  -   -   -  9 13 mph 1005.5mb 49f 52f
11:20pm  -   -   -  11 13 mph 1005.5mb 49f 52f
11:10pm  -   -   -  11 16 mph 1005.5mb 50f 52f
11:00pm  -   -   -  13 16 mph 1005.5mb 50f 52f
10:50pm 7ft 11s 7s 13 18 mph 1005.5mb 50f 52f
10:40pm 7ft  -  7s 13 18 mph 1005.5mb 50f 52f
10:30pm  -   -   -  13 18 mph 1005.5mb 50f 53f
10:20pm  -   -   -  16 18 mph 1005.5mb 50f 53f
10:10pm  -   -   -  13 18 mph 1005.5mb 50f 53f
10:00pm  -   -   -  13 18 mph 1005.5mb 50f 53f